Location: B�chli
(46.9652°N, 8.4122°E)
Time: 21:56:49
(UTC+00:00)

Daily predictions for brighter satellites

Satellite Brightness Start Highest point End
(mag) Time Altitude Azimuth Time Altitude Azimuth Time Altitude Azimuth
Cosmos 2233 Rocket 4.3 17:39:08 10° SSW 17:45:21 78° W 17:51:33 10° N
COSMO-SKYMED 1 2.7 17:45:40 10° NNE 17:50:03 83° WNW 17:54:23 10° SSW
Nadezhda 4 Rocket 4.5 17:47:06 10° N 17:52:47 38° ENE 17:58:26 10° SE
Ariane Rocket 4.3 17:49:26 10° ESE 17:53:13 22° ENE 17:57:02 10° NNE
Cosmos 1689 Rocket 3.5 17:50:59 10° N 17:53:51 43° WNW 17:56:40 10° SW
H-2A R/B 2.4 17:49:12 10° SE 17:53:54 43° ENE 17:58:45 10° N
SJ 16-02 4.1 17:52:00 10° WSW 17:55:22 21° WNW 17:58:45 10° N
Exosat Rocket 4.5 17:53:19 10° SSE 17:57:44 26° ESE 18:01:50 10° NE
Cosmos 2263 Rocket 3.4 17:53:16 10° SW 17:58:37 46° NW 18:04:02 10° NNE
USA 116 3.9 17:56:41 10° NNE 18:00:16 47° E 18:04:16 10° S
Cosmos 1939 Rocket 3.9 17:57:50 10° S 18:01:52 52° W 18:05:57 10° NNW
Cosmos 1844 Rocket 2.9 17:57:42 10° S 18:03:02 48° ESE 18:08:24 10° NE
Cosmos 372 Rocket 4.0 17:59:38 10° SSW 18:04:53 86° ESE 18:10:08 10° NNE
Cosmos 1707 2.6 18:01:22 10° N 18:05:14 81° E 18:09:04 10° S
Cosmos 1626 4.1 18:04:50 10° NE 18:06:29 12° ENE 18:07:28 11° E
NOSS 3-2 (C) 4.1 17:59:32 10° NW 18:06:55 67° NE 18:15:17 10° SE
Cosmos 2278 Rocket4.218:10:00ENE18:10:00ENE18:03:58SE
Cosmos 1844 4.0 18:05:06 10° S 18:10:29 45° ESE 18:15:50 10° NE
Cosmos 2034 Rocket 4.2 18:04:48 10° SSE 18:10:52 49° E 18:16:55 10° NNE
ISS -3.0 18:08:10 10° W 18:11:28 51° NNW 18:14:47 10° ENE
NOSS 3-4 (A) 4.2 18:07:05 10° S 18:11:57 28° ESE 18:17:03 10° ENE
NOSS 3-4 (C) 4.2 18:07:13 10° S 18:12:04 27° ESE 18:17:09 10° ENE
USA 186 3.2 18:11:04 14° ESE 18:12:56 21° ENE 18:15:32 10° NNE
Meteor 1-12 Rocket 4.3 18:08:22 10° S 18:14:13 73° E 18:19:59 10° NNE
Lacrosse 4 Rocket 3.6 18:13:41 10° NNE 18:14:36 11° NE 18:15:30 10° NE
Cosmos 1300 Rocket 3.5 18:15:07 10° S 18:19:31 79° E 18:23:59 10° NNE
Okean 1 Rocket 3.9 18:18:56 10° SSE 18:22:50 30° E 18:26:45 10° NNE
Sich 1 Rocket 4.3 18:19:27 10° SSW 18:23:54 61° WNW 18:28:27 10° N
CENTAUR R/B 3.2 18:17:59 10° NW 18:26:01 78° NE 18:34:46 10° SE
Cosmos 2298 Rocket 4.0 18:20:49 10° SSW 18:26:09 88° ESE 18:31:32 10° NNE
Resurs 01 Rocket 3.5 18:25:51 13° ENE 18:26:37 13° ENE 18:28:41 10° NNE
Cosmos 1833 Rocket 3.9 18:22:34 10° N 18:27:13 25° NE 18:30:12 17° E
CSL-04 Debris 4.3 18:24:37 10° S 18:30:00 78° WSW 18:35:26 10° NNW
CSL-04 Rocket 3.8 18:26:30 10° SSE 18:31:57 79° WSW 18:37:31 10° NNW
Cosmos 1766 4.0 18:30:22 10° SSE 18:33:49 30° E 18:37:19 10° NNE
Okean 2 Rocket 3.3 18:29:37 10° SSW 18:34:06 73° W 18:38:34 10° N
ATLAS 2AS CENTAUR R/B 3.3 18:27:02 10° S 18:34:20 43° ESE 18:41:39 10° NE
Cosmos 1025 Rocket 3.3 18:30:15 10° NNW 18:34:39 72° W 18:39:01 10° S
YAOGAN 1 3.7 18:30:31 10° S 18:34:39 45° W 18:38:50 10° NNW
ATLAS 3B R/B 3.4 18:31:48 10° NNW 18:38:12 41° NE 18:42:34 20° E
Cosmos 1634 Rocket 4.5 18:33:10 10° SSE 18:38:41 36° E 18:44:15 10° NNE
Abrixas rocket 1.9 18:38:30 10° WNW 18:41:20 67° SSW 18:42:11 39° SE
CREW DRAGON DEMO-1 DEB 2.8 18:40:13 10° WNW 18:43:15 77° SSW 18:44:16 38° SE
Cosmos 1536 Rocket 3.7 18:39:58 10° NNW 18:44:27 77° W 18:48:54 10° S
Cosmos 1125 Rocket 3.5 18:41:28 10° SSW 18:46:47 84° ESE 18:52:08 10° NNE
SJ-6B 3.0 18:48:31 31° ESE 18:49:52 46° ENE 18:53:32 10° N
CZ-4 R/B 3.9 18:48:57 10° SSW 18:52:24 25° W 18:55:51 10° NW
CZ-2C R/B 4.2 18:49:14 10° S 18:54:24 48° W 18:59:52 10° NNW
Cosmos 2195 Rocket 4.5 18:48:34 10° N 18:54:45 61° ENE 19:00:07 14° SSE
USA 238 DEB 4.4 18:48:07 10° NW 18:55:11 57° WSW 19:02:30 10° SSE
USA 238 4.4 18:48:14 10° NW 18:55:18 58° WSW 19:02:37 10° SSE
Cosmos 1674 2.7 18:52:57 10° NNW 18:56:49 79° W 19:00:16 12° S
Cosmos 2285 Rocket 3.9 18:51:12 10° SSW 18:57:29 80° ESE 19:03:53 10° NNE
Cosmos 2026 Rocket 4.1 18:51:20 10° N 18:57:38 56° ENE 19:02:16 19° SSE
Cosmos 1092 Rocket 3.9 18:51:40 10° N 18:57:51 72° E 19:04:03 10° SSE
MOS 1 Rocket 3.5 18:58:42 10° N 19:03:03 62° WNW 19:07:16 10° SSW
FREGAT/IRIS 3.6 19:04:41 31° N 19:04:41 31° N 19:06:15 10° N
Cosmos 1428 Rocket 4.5 18:59:59 10° N 19:06:11 61° ENE 19:10:06 23° SSE
TSX-5 3.8 19:04:53 10° SSW 19:08:41 68° ESE 19:13:35 10° NE
ARGOS 3.7 19:04:38 10° S 19:09:55 58° W 19:15:15 10° NNW
CZ-2C R/B 2.6 19:07:45 10° NNE 19:13:21 74° ESE 19:18:58 10° S
Cosmos 1340 Rocket 3.3 19:15:11 41° NE 19:15:11 41° NE 19:18:10 10° NNE
Cosmos 2279 Rocket 4.3 19:12:59 32° SE 19:15:10 43° E 19:21:01 10° NNE
Cosmos 1733 3.0 19:13:47 25° S 19:15:58 83° E 19:19:48 10° N
MOS 1 4.2 19:13:05 19° SSE 19:17:15 89° E 19:23:00 10° NNW
GRACE-FO 1 4.4 19:15:08 10° N 19:18:52 80° E 19:19:03 76° SE
GRACE-FO 2 4.4 19:15:30 10° N 19:19:14 81° E 19:19:25 77° SE
Lacrosse 5 rocket 3.0 19:15:41 10° NW 19:19:27 26° NNE 19:20:43 23° NE
Cosmos 2082 Rocket 2.9 19:15:20 10° NNW 19:20:27 35° NE 19:21:17 33° ENE
DMSP B5D2-2 3.9 19:17:52 10° NNE 19:23:12 77° ESE 19:28:28 10° S
BREEZE-M DEB (TANK) 4.2 19:19:57 10° W 19:23:26 40° SSW 19:27:36 24° SSE
BREEZE-M R/B 3.4 19:14:46 10° WSW 19:23:50 85° NNW 19:24:25 61° ENE
OBJECT-B 2.0 19:28:48 37° N 19:28:48 37° N 19:30:54 10° N
Cosmos 1805 4.1 19:24:07 10° SSW 19:27:55 50° WNW 19:31:46 10° N
Cosmos 2142 Rocket 4.4 19:24:37 21° SSE 19:28:49 62° E 19:34:56 10° NNE
Ariane Rocket 3.5 19:28:06 18° S 19:31:46 59° WSW 19:36:49 10° NNW
Milstar 3 Cent rocket 4.3 19:30:15 10° SSW 19:32:24 12° S 19:32:39 12° S
H-2A R/B 4.0 19:29:17 10° SSW 19:33:30 27° W 19:37:50 10° NW
USA 234 4.5 19:38:14 23° S 19:38:14 23° S 19:40:57 10° SSW
Cosmos 1269 Rocket 4.4 19:31:59 10° NNW 19:37:14 61° WSW 19:39:33 32° S
Terra 4.2 19:42:51 11° NE 19:42:51 11° NE 19:43:17 10° NNE
Cosmos 1626 2.7 19:38:28 10° NNW 19:42:02 53° W 19:42:02 53° W
Okean 1-7 Rocket 3.9 19:37:57 10° N 19:41:50 57° NNE 19:41:50 57° NNE
USA 186 4.0 19:42:34 20° WSW 19:43:32 23° W 19:46:16 10° NW
Cosmos 1455 Rocket 4.5 19:47:18 27° NNE 19:47:18 27° NNE 19:49:24 10° NNE
COSMOS 2406 3.2 19:40:53 10° NNW 19:46:35 77° WSW 19:47:55 53° S
Cosmos 1844 Rocket 4.4 19:42:11 10° WSW 19:47:07 32° NW 19:52:07 10° NNE
ISS -1.9 19:45:34 10° WNW 19:47:47 29° NNW 19:47:47 29° NNW
Cosmos 2278 Rocket 2.2 19:45:12 10° SSW 19:51:32 63° ENE 19:56:28 10° NNE
Lacrosse 4 Rocket 2.5 19:50:10 10° NNW 19:52:52 37° N 19:52:52 37° N
Meteor 1-24 Rocket 4.4 19:53:28 10° NNW 19:58:53 53° W 20:01:37 29° SSW
Cosmos 909 Rocket 4.0 19:52:54 10° NNW 19:59:24 63° NE 19:59:55 60° ENE
Cosmos 2266 Rocket 4.2 19:55:16 10° N 20:00:34 52° NE 20:00:34 52° NE
NOSS 3-4 (A) 3.8 19:56:26 10° SW 20:02:18 63° NW 20:08:40 10° NE
NOSS 3-4 (C) 3.8 19:56:32 10° SW 20:02:25 64° NW 20:08:47 10° NE
Resurs 01 Rocket 2.2 20:03:26 55° NNW 20:03:26 55° NNW 20:06:57 10° NNW
Meteor 2-19 Rocket 4.3 19:56:58 10° N 20:03:07 88° E 20:03:47 73° SSE
Cosmos 1833 Rocket 2.8 20:06:02 10° NNW 20:11:38 66° WSW 20:11:54 65° SW
Cosmos 2251 Rocket 3.8 20:09:09 10° NNW 20:13:44 65° N 20:13:44 65° N
CENTAUR R/B 4.5 20:09:17 10° NW 20:16:25 33° WSW 20:22:00 17° SSW
ARIANE 5 R/B 4.1 20:20:05 31° N 20:20:05 31° N 20:22:22 10° NNW
SPOT 3 Rocket 4.3 20:20:50 46° WSW 20:21:11 47° W 20:26:10 10° NNW
ATLAS 2AS CENTAUR R/B 3.5 20:17:20 10° WSW 20:25:12 60° NW 20:32:58 10° NE
ATLAS 3B R/B 2.9 20:22:28 10° NW 20:29:13 61° WSW 20:29:50 58° SW
Cosmos 1655 Rocket 4.2 20:31:35 10° NNW 20:37:49 66° W 20:37:50 66° W
Lacrosse 5 rocket 3.9 20:54:46 10° NW 20:56:20 21° NW 20:56:20 21° NW
Cosmos 2082 Rocket 3.5 20:59:21 10° NW 21:03:08 36° WNW 21:03:08 36° WNW
Terra 4.3 21:21:45 18° NNW 21:21:45 18° NNW 21:22:59 10° NNW
Cosmos 2278 Rocket 4.2 21:33:00 18° W 21:35:28 24° NW 21:40:01 10° N
SL-16 R/B 4.5 23:50:37 23° NNE 23:50:37 23° NNE 23:53:38 10° N
